Time,TemperatureF,DewpointF,PressureIn,WindDirection,WindDirectionDegrees,WindSpeedMPH,WindSpeedGustMPH,Humidity,HourlyPrecipIn,Conditions,Clouds,dailyrainin,SoftwareType,DateUTC
2013-03-25 00:00:00,32.1,24.1,29.59,SSW,212,1.0,4.0,72,0.00,,RMK !SN!,0.00,WUHU216DAVISVP2,2013-03-25 04:00:00,
2013-03-25 00:05:00,32.2,24.2,29.59,South,172,1.0,5.0,72,0.00,,RMK !SN!,0.00,WUHU216DAVISVP2,2013-03-25 04:05:00,
2013-03-25 00:10:00,32.3,24.3,29.59,SSW,198,1.0,5.0,72,0.00,,RMK !SN!,0.00,WUHU216DAVISVP2,2013-03-25 04:10:00,
2013-03-25 00:15:00,32.3,24.3,29.59,SSE,156,1.0,5.0,72,0.00,,RMK !SN!,0.00,WUHU216DAVISVP2,2013-03-25 04:15:00,
2013-03-25 00:20:00,32.4,24.0,29.59,SE,141,1.0,5.0,71,0.00,,RMK !SN!,0.00,WUHU216DAVISVP2,2013-03-25 04:20:00,
2013-03-25 00:25:00,32.5,24.2,29.59,South,187,0.0,3.0,71,0.00,,RMK !SN!,0.00,WUHU216DAVISVP2,2013-03-25 04:25:00,
2013-03-25 00:30:00,32.6,24.0,29.59,South,176,0.0,3.0,70,0.00,,RMK !SN!,0.00,WUHU216DAVISVP2,2013-03-25 04:30:00,
2013-03-25 00:35:00,32.7,24.1,29.58,South,176,0.0,4.0,70,0.00,,RMK !SN!,0.00,WUHU216DAVISVP2,2013-03-25 04:35:00,
2013-03-25 00:40:00,32.8,24.2,29.58,SSE,149,1.0,4.0,70,0.00,,RMK !SN!,0.00,WUHU216DAVISVP2,2013-03-25 04:40:00,
2013-03-25 00:45:00,32.8,24.2,29.58,SSE,162,0.0,4.0,70,0.00,,RMK !SN!,0.00,WUHU216DAVISVP2,2013-03-25 04:45:00,
2013-03-25 00:50:00,32.8,24.1,29.57,South,173,0.0,4.0,70,0.00,,RMK !SN!,0.00,WUHU216DAVISVP2,2013-03-25 04:50:00,
2013-03-25 00:55:00,32.8,24.1,29.57,SE,146,1.0,4.0,70,0.00,,RMK !SN!,0.00,WUHU216DAVISVP2,2013-03-25 04:55:00,
2013-03-25 01:00:00,32.9,23.8,29.57,South,181,2.0,4.0,69,0.00,,RMK !SN!,0.00,WUHU216DAVISVP2,2013-03-25 05:00:00,
2013-03-25 01:05:00,32.9,23.8,29.57,South,187,2.0,4.0,69,0.00,,RMK !SN!,0.00,WUHU216DAVISVP2,2013-03-25 05:05:00,
2013-03-25 01:10:00,33.0,24.0,29.57,SSW,193,1.0,12.0,69,0.00,,RMK !SN!,0.00,WUHU216DAVISVP2,2013-03-25 05:10:00,
2013-03-25 01:15:00,32.9,23.9,29.57,ESE,111,1.0,12.0,69,0.00,,RMK !SN!,0.00,WUHU216DAVISVP2,2013-03-25 05:15:00,
2013-03-25 01:20:00,32.9,24.2,29.57,SE,144,1.0,12.0,70,0.00,,RMK !SN!,0.00,WUHU216DAVISVP2,2013-03-25 05:20:00,
2013-03-25 01:25:00,33.0,24.3,29.57,SSE,164,0.0,12.0,70,0.00,,RMK !SN!,0.00,WUHU216DAVISVP2,2013-03-25 05:25:00,
2013-03-25 01:30:00,33.0,24.3,29.57,WSW,253,3.0,8.0,70,0.00,,RMK !SN!,0.00,WUHU216DAVISVP2,2013-03-25 05:30:00,
2013-03-25 01:35:00,32.9,24.5,29.57,South,177,2.0,8.0,71,0.00,,RMK !SN!,0.00,WUHU216DAVISVP2,2013-03-25 05:35:00,
2013-03-25 01:40:00,32.8,25.1,29.57,WSW,255,5.0,7.0,73,0.00,,RMK !SN!,0.00,WUHU216DAVISVP2,2013-03-25 05:40:00,
2013-03-25 01:45:00,32.7,25.4,29.56,South,183,0.0,7.0,74,0.00,,RMK !SN!,0.00,WUHU216DAVISVP2,2013-03-25 05:45:00,
2013-03-25 01:50:00,32.6,25.6,29.56,SW,224,2.0,8.0,75,0.00,,RMK !SN!,0.00,WUHU216DAVISVP2,2013-03-25 05:50:00,
2013-03-25 01:55:00,32.6,25.6,29.56,SW,236,3.0,8.0,75,0.00,,RMK !SN!,0.00,WUHU216DAVISVP2,2013-03-25 05:55:00,
2013-03-25 02:00:00,32.6,25.9,29.56,WNW,288,0.0,8.0,76,0.00,,RMK !SN!,0.00,WUHU216DAVISVP2,2013-03-25 06:00:00,
2013-03-25 02:05:00,32.6,26.2,29.56,SSE,155,1.0,8.0,77,0.00,,RMK !SN!,0.00,WUHU216DAVISVP2,2013-03-25 06:05:00,
2013-03-25 02:10:00,32.4,26.6,29.57,NW,304,5.0,7.0,79,0.00,,RMK !SN!,0.00,WUHU216DAVISVP2,2013-03-25 06:10:00,
2013-03-25 02:15:00,32.2,26.7,29.57,WNW,298,2.0,7.0,80,0.00,,RMK !SN!,0.00,WUHU216DAVISVP2,2013-03-25 06:15:00,
2013-03-25 02:20:00,31.8,26.9,29.57,SSE,162,1.0,10.0,82,0.00,,RMK !SN!,0.00,WUHU216DAVISVP2,2013-03-25 06:20:00,
2013-03-25 02:25:00,31.5,27.2,29.57,South,176,0.0,10.0,84,0.00,,RMK !SN!,0.00,WUHU216DAVISVP2,2013-03-25 06:25:00,
2013-03-25 02:30:00,31.3,27.3,29.56,SSE,156,1.0,10.0,85,0.00,,RMK !SN!,0.00,WUHU216DAVISVP2,2013-03-25 06:30:00,
2013-03-25 02:35:00,31.0,27.5,29.56,South,188,0.0,7.0,87,0.00,,RMK !SN!,0.00,WUHU216DAVISVP2,2013-03-25 06:35:00,
2013-03-25 02:40:00,30.9,27.7,29.56,WSW,255,0.0,5.0,88,0.00,,RMK !SN!,0.00,WUHU216DAVISVP2,2013-03-25 06:40:00,
2013-03-25 02:45:00,30.7,27.8,29.56,South,181,0.0,7.0,89,0.00,,RMK !SN!,0.00,WUHU216DAVISVP2,2013-03-25 06:45:00,
2013-03-25 02:50:00,30.5,27.9,29.56,South,175,1.0,7.0,90,0.00,,RMK !SN!,0.00,WUHU216DAVISVP2,2013-03-25 06:50:00,
2013-03-25 02:55:00,30.4,28.0,29.56,WSW,252,2.0,7.0,91,0.00,,RMK !SN!,0.00,WUHU216DAVISVP2,2013-03-25 06:55:00,
2013-03-25 03:00:00,30.4,28.0,29.56,South,180,0.0,7.0,91,0.00,,RMK !SN!,0.00,WUHU216DAVISVP2,2013-03-25 07:00:00,
2013-03-25 03:05:00,30.3,28.2,29.56,SSW,208,2.0,6.0,92,0.00,,RMK !SN!,0.00,WUHU216DAVISVP2,2013-03-25 07:05:00,
2013-03-25 03:10:00,30.3,28.3,29.56,SE,146,1.0,6.0,92,0.00,,RMK !SN!,0.00,WUHU216DAVISVP2,2013-03-25 07:10:00,
2013-03-25 03:15:00,30.3,28.3,29.56,SSE,165,0.0,6.0,92,0.00,,RMK !SN!,0.00,WUHU216DAVISVP2,2013-03-25 07:15:00,
2013-03-25 03:20:00,30.3,28.5,29.56,SE,145,0.0,6.0,93,0.00,,RMK !SN!,0.00,WUHU216DAVISVP2,2013-03-25 07:20:00,
2013-03-25 03:25:00,30.3,28.5,29.56,SE,132,0.0,3.0,93,0.00,,RMK !SN!,0.00,WUHU216DAVISVP2,2013-03-25 07:25:00,
2013-03-25 03:30:00,30.3,28.5,29.55,SSE,160,0.0,3.0,93,0.00,,RMK !SN!,0.00,WUHU216DAVISVP2,2013-03-25 07:30:00,
2013-03-25 03:35:00,30.2,28.6,29.55,NW,306,0.0,3.0,94,0.00,,RMK !SN!,0.00,WUHU216DAVISVP2,2013-03-25 07:35:00,
2013-03-25 03:40:00,30.3,28.8,29.55,South,169,0.0,5.0,94,0.00,,RMK !SN!,0.00,WUHU216DAVISVP2,2013-03-25 07:40:00,
2013-03-25 03:45:00,30.3,28.8,29.55,SSE,167,0.0,5.0,94,0.00,,RMK !SN!,0.00,WUHU216DAVISVP2,2013-03-25 07:45:00,
2013-03-25 03:50:00,30.4,28.9,29.55,South,183,1.0,5.0,94,0.00,,RMK !SN!,0.00,WUHU216DAVISVP2,2013-03-25 07:50:00,
2013-03-25 03:55:00,30.4,28.8,29.54,SSW,197,2.0,5.0,94,0.00,,RMK !SN!,0.00,WUHU216DAVISVP2,2013-03-25 07:55:00,
2013-03-25 04:00:00,30.4,28.8,29.54,SSW,203,1.0,5.0,94,0.00,,RMK !SN!,0.00,WUHU216DAVISVP2,2013-03-25 08:00:00,
2013-03-25 04:05:00,30.4,28.8,29.54,SSE,152,0.0,5.0,94,0.00,,RMK !SN!,0.00,WUHU216DAVISVP2,2013-03-25 08:05:00,
2013-03-25 04:10:00,30.4,28.8,29.54,South,184,0.0,4.0,94,0.00,,RMK !SN!,0.00,WUHU216DAVISVP2,2013-03-25 08:10:00,
2013-03-25 04:15:00,30.4,28.8,29.54,SSE,156,0.0,4.0,94,0.00,,RMK !SN!,0.00,WUHU216DAVISVP2,2013-03-25 08:15:00,
2013-03-25 04:20:00,30.4,29.1,29.54,SSW,210,2.0,4.0,95,0.00,,RMK !SN!,0.00,WUHU216DAVISVP2,2013-03-25 08:20:00,
2013-03-25 04:25:00,30.4,29.1,29.54,South,187,0.0,4.0,95,0.00,,RMK !SN!,0.00,WUHU216DAVISVP2,2013-03-25 08:25:00,
2013-03-25 04:30:00,30.4,29.1,29.54,South,188,1.0,4.0,95,0.00,,RMK !SN!,0.00,WUHU216DAVISVP2,2013-03-25 08:30:00,
2013-03-25 04:35:00,30.3,29.0,29.53,South,177,0.0,3.0,95,0.00,,RMK !SN!,0.00,WUHU216DAVISVP2,2013-03-25 08:35:00,
2013-03-25 04:40:00,30.3,29.0,29.53,South,179,0.0,3.0,95,0.00,,RMK !SN!,0.00,WUHU216DAVISVP2,2013-03-25 08:40:00,
2013-03-25 04:45:00,30.3,29.0,29.53,SSE,148,0.0,6.0,95,0.00,,RMK !SN!,0.00,WUHU216DAVISVP2,2013-03-25 08:45:00,
2013-03-25 04:50:00,30.2,28.9,29.53,South,184,0.0,6.0,95,0.00,,RMK !SN!,0.00,WUHU216DAVISVP2,2013-03-25 08:50:00,
2013-03-25 04:55:00,30.2,28.9,29.53,South,172,0.0,6.0,95,0.00,,RMK !SN!,0.00,WUHU216DAVISVP2,2013-03-25 08:55:00,
2013-03-25 05:01:00,30.2,28.9,29.52,SSE,168,0.0,6.0,95,0.00,,RMK !SN!,0.00,WUHU216DAVISVP2,2013-03-25 09:01:00,
2013-03-25 05:06:00,30.2,28.9,29.52,ESE,120,0.0,3.0,95,0.00,,RMK !SN!,0.00,WUHU216DAVISVP2,2013-03-25 09:06:00,
2013-03-25 05:11:00,30.2,28.9,29.52,WSW,250,1.0,3.0,95,0.00,,RMK !SN!,0.00,WUHU216DAVISVP2,2013-03-25 09:11:00,
2013-03-25 05:16:00,30.2,28.9,29.52,SSW,200,0.0,3.0,95,0.00,,RMK !SN!,0.00,WUHU216DAVISVP2,2013-03-25 09:16:00,
2013-03-25 05:21:00,30.2,29.2,29.52,SSE,159,0.0,3.0,96,0.00,,RMK !SN!,0.00,WUHU216DAVISVP2,2013-03-25 09:21:00,
2013-03-25 05:26:00,30.2,29.2,29.52,SSE,162,0.0,3.0,96,0.00,,RMK !SN!,0.00,WUHU216DAVISVP2,2013-03-25 09:26:00,
2013-03-25 05:31:00,30.2,29.2,29.52,South,177,0.0,2.0,96,0.00,,RMK !SN!,0.00,WUHU216DAVISVP2,2013-03-25 09:31:00,
2013-03-25 05:36:00,30.2,29.2,29.52,SSE,159,0.0,2.0,96,0.00,,RMK !SN!,0.00,WUHU216DAVISVP2,2013-03-25 09:36:00,
2013-03-25 05:41:00,30.2,29.2,29.52,ESE,114,0.0,2.0,96,0.00,,RMK !SN!,0.00,WUHU216DAVISVP2,2013-03-25 09:41:00,
2013-03-25 05:46:00,30.1,29.1,29.52,SW,229,1.0,2.0,96,0.00,,RMK !SN!,0.00,WUHU216DAVISVP2,2013-03-25 09:46:00,
2013-03-25 05:50:00,30.1,29.1,29.52,South,177,0.0,2.0,96,0.00,,RMK !SN!,0.00,WUHU216DAVISVP2,2013-03-25 09:50:00,
2013-03-25 05:55:00,30.1,29.1,29.52,South,188,0.0,2.0,96,0.00,,RMK !SN!,0.00,WUHU216DAVISVP2,2013-03-25 09:55:00,
2013-03-25 06:00:00,30.0,29.0,29.51,SE,144,0.0,2.0,96,0.00,,RMK !SN!,0.00,WUHU216DAVISVP2,2013-03-25 10:00:00,
2013-03-25 06:06:00,30.0,29.0,29.51,South,183,0.0,2.0,96,0.00,,RMK !SN!,0.00,WUHU216DAVISVP2,2013-03-25 10:06:00,
2013-03-25 06:11:00,30.0,29.0,29.51,SSW,203,0.0,2.0,96,0.00,,RMK !SN!,0.00,WUHU216DAVISVP2,2013-03-25 10:11:00,
2013-03-25 06:15:00,29.9,28.9,29.51,SSE,165,0.0,2.0,96,0.00,,RMK !SN!,0.00,WUHU216DAVISVP2,2013-03-25 10:15:00,
2013-03-25 06:20:00,29.9,28.9,29.51,South,169,0.0,1.0,96,0.00,,RMK !SN!,0.00,WUHU216DAVISVP2,2013-03-25 10:20:00,
2013-03-25 06:25:00,29.9,28.9,29.51,SE,125,0.0,1.0,96,0.00,,RMK !SN!,0.00,WUHU216DAVISVP2,2013-03-25 10:25:00,
2013-03-25 06:31:00,29.9,28.9,29.52,SSW,193,0.0,1.0,96,0.00,,RMK !SN!,0.00,WUHU216DAVISVP2,2013-03-25 10:31:00,
2013-03-25 06:36:00,29.8,28.8,29.51,SSE,161,0.0,1.0,96,0.00,,RMK !SN!,0.00,WUHU216DAVISVP2,2013-03-25 10:36:00,
2013-03-25 06:40:00,29.8,28.8,29.52,SSE,160,0.0,1.0,96,0.00,,RMK !SN!,0.00,WUHU216DAVISVP2,2013-03-25 10:40:00,
2013-03-25 06:45:00,29.8,28.8,29.51,South,169,0.0,1.0,96,0.00,,RMK !SN!,0.00,WUHU216DAVISVP2,2013-03-25 10:45:00,
2013-03-25 06:50:00,29.8,28.8,29.52,South,172,0.0,2.0,96,0.00,,RMK !SN!,0.00,WUHU216DAVISVP2,2013-03-25 10:50:00,
2013-03-25 06:56:00,29.8,28.8,29.52,South,177,0.0,2.0,96,0.00,,RMK !SN!,0.00,WUHU216DAVISVP2,2013-03-25 10:56:00,
2013-03-25 07:01:00,29.8,28.8,29.52,South,191,0.0,2.0,96,0.00,,RMK !SN!,0.00,WUHU216DAVISVP2,2013-03-25 11:01:00,
2013-03-25 07:06:00,29.8,28.8,29.52,SSW,203,0.0,2.0,96,0.00,,RMK !SN!,0.00,WUHU216DAVISVP2,2013-03-25 11:06:00,
2013-03-25 07:11:00,29.8,28.8,29.52,SW,217,0.0,2.0,96,0.00,,RMK !SN!,0.00,WUHU216DAVISVP2,2013-03-25 11:11:00,
2013-03-25 07:16:00,29.7,28.7,29.52,South,173,0.0,2.0,96,0.00,,RMK !SN!,0.00,WUHU216DAVISVP2,2013-03-25 11:16:00,
2013-03-25 07:21:00,29.7,28.7,29.52,SE,146,0.0,1.0,96,0.00,,RMK !SN!,0.00,WUHU216DAVISVP2,2013-03-25 11:21:00,
2013-03-25 07:26:00,29.7,28.7,29.52,South,169,0.0,1.0,96,0.00,,RMK !SN!,0.00,WUHU216DAVISVP2,2013-03-25 11:26:00,
2013-03-25 07:31:00,29.7,28.7,29.52,SSE,156,0.0,1.0,96,0.00,,RMK !SN!,0.00,WUHU216DAVISVP2,2013-03-25 11:31:00,
2013-03-25 07:36:00,29.7,28.7,29.52,SSE,149,0.0,1.0,96,0.00,,RMK !SN!,0.00,WUHU216DAVISVP2,2013-03-25 11:36:00,
2013-03-25 07:41:00,29.7,28.7,29.52,SE,125,0.0,1.0,96,0.00,,RMK !SN!,0.00,WUHU216DAVISVP2,2013-03-25 11:41:00,
2013-03-25 07:46:00,29.7,28.7,29.53,SSE,158,0.0,1.0,96,0.00,,RMK !SN!,0.00,WUHU216DAVISVP2,2013-03-25 11:46:00,
2013-03-25 07:51:00,29.7,28.7,29.53,SSE,149,0.0,1.0,96,0.00,,RMK !SN!,0.00,WUHU216DAVISVP2,2013-03-25 11:51:00,
2013-03-25 07:56:00,29.8,28.8,29.53,SSE,165,0.0,1.0,96,0.00,,RMK !SN!,0.00,WUHU216DAVISVP2,2013-03-25 11:56:00,
2013-03-25 08:01:00,29.8,28.8,29.53,SSE,162,0.0,1.0,96,0.00,,RMK !SN!,0.00,WUHU216DAVISVP2,2013-03-25 12:01:00,
2013-03-25 08:06:00,29.8,28.8,29.53,SSE,167,0.0,1.0,96,0.00,,RMK !SN!,0.00,WUHU216DAVISVP2,2013-03-25 12:06:00,
2013-03-25 08:11:00,29.9,28.9,29.53,SSE,148,0.0,1.0,96,0.00,,RMK !SN!,0.00,WUHU216DAVISVP2,2013-03-25 12:11:00,
2013-03-25 08:16:00,30.0,29.0,29.53,ESE,110,0.0,1.0,96,0.00,,RMK !SN!,0.00,WUHU216DAVISVP2,2013-03-25 12:16:00,
2013-03-25 08:21:00,30.0,29.0,29.53,SSE,155,0.0,2.0,96,0.00,,RMK !SN!,0.00,WUHU216DAVISVP2,2013-03-25 12:21:00,
2013-03-25 08:26:00,30.1,29.1,29.53,SSE,155,0.0,2.0,96,0.00,,RMK !SN!,0.00,WUHU216DAVISVP2,2013-03-25 12:26:00,
2013-03-25 08:31:00,30.1,29.1,29.53,SSE,168,0.0,2.0,96,0.00,,RMK !SN!,0.00,WUHU216DAVISVP2,2013-03-25 12:31:00,
2013-03-25 08:36:00,30.1,29.1,29.53,South,179,0.0,2.0,96,0.00,,RMK !SN!,0.00,WUHU216DAVISVP2,2013-03-25 12:36:00,
2013-03-25 08:41:00,30.2,29.2,29.53,SSE,162,0.0,1.0,96,0.00,,RMK !SN!,0.00,WUHU216DAVISVP2,2013-03-25 12:41:00,
2013-03-25 08:46:00,30.2,29.2,29.53,SSE,158,0.0,1.0,96,0.00,,RMK !SN!,0.00,WUHU216DAVISVP2,2013-03-25 12:46:00,
2013-03-25 08:51:00,30.2,29.2,29.54,SSE,160,0.0,1.0,96,0.00,,RMK !SN!,0.00,WUHU216DAVISVP2,2013-03-25 12:51:00,
2013-03-25 08:56:00,30.3,29.3,29.54,SSE,156,0.0,1.0,96,0.00,,RMK !SN!,0.00,WUHU216DAVISVP2,2013-03-25 12:56:00,
2013-03-25 09:01:00,30.4,29.4,29.54,South,169,0.0,1.0,96,0.00,,RMK !SN!,0.00,WUHU216DAVISVP2,2013-03-25 13:01:00,
2013-03-25 09:07:00,30.5,29.5,29.54,SSE,167,0.0,1.0,96,0.00,,RMK !SN!,0.00,WUHU216DAVISVP2,2013-03-25 13:07:00,
2013-03-25 09:12:00,30.6,29.6,29.54,SSE,163,0.0,1.0,96,0.00,,RMK !SN!,0.00,WUHU216DAVISVP2,2013-03-25 13:12:00,
2013-03-25 09:17:00,30.6,29.6,29.54,South,184,0.0,1.0,96,0.00,,RMK !SN!,0.00,WUHU216DAVISVP2,2013-03-25 13:17:00,
2013-03-25 09:22:00,30.7,29.7,29.54,South,183,0.0,1.0,96,0.00,,RMK !SN!,0.00,WUHU216DAVISVP2,2013-03-25 13:22:00,
2013-03-25 09:27:00,30.8,29.8,29.54,SSW,200,0.0,1.0,96,0.00,,RMK !SN!,0.00,WUHU216DAVISVP2,2013-03-25 13:27:00,
2013-03-25 09:32:00,30.9,29.9,29.54,SSW,205,0.0,1.0,96,0.00,,RMK !SN!,0.00,WUHU216DAVISVP2,2013-03-25 13:32:00,
2013-03-25 09:37:00,31.1,30.1,29.54,SSE,166,0.0,1.0,96,0.00,,RMK !SN!,0.00,WUHU216DAVISVP2,2013-03-25 13:37:00,
2013-03-25 09:42:00,31.3,30.3,29.54,SSW,194,0.0,1.0,96,0.00,,RMK !SN!,0.00,WUHU216DAVISVP2,2013-03-25 13:42:00,
2013-03-25 09:47:00,31.3,30.3,29.54,SSE,165,0.0,1.0,96,0.00,,RMK !SN!,0.00,WUHU216DAVISVP2,2013-03-25 13:47:00,
2013-03-25 09:52:00,31.6,30.6,29.54,South,173,0.0,1.0,96,0.00,,RMK !SN!,0.00,WUHU216DAVISVP2,2013-03-25 13:52:00,
2013-03-25 09:57:00,31.6,30.6,29.55,SSE,150,0.0,1.0,96,0.00,,RMK !SN!,0.00,WUHU216DAVISVP2,2013-03-25 13:57:00,
2013-03-25 10:02:00,31.6,30.6,29.55,South,177,0.0,1.0,96,0.00,,RMK !SN!,0.00,WUHU216DAVISVP2,2013-03-25 14:02:00,
2013-03-25 10:07:00,31.7,30.7,29.55,South,191,0.0,1.0,96,0.00,,RMK !SN!,0.00,WUHU216DAVISVP2,2013-03-25 14:07:00,
2013-03-25 10:12:00,31.9,30.9,29.55,SSE,162,0.0,1.0,96,0.00,,RMK !SN!,0.00,WUHU216DAVISVP2,2013-03-25 14:12:00,
2013-03-25 10:17:00,31.8,30.5,29.55,SSW,204,0.0,0.0,95,0.00,,RMK !SN!,0.00,WUHU216DAVISVP2,2013-03-25 14:17:00,
2013-03-25 10:22:00,32.0,30.7,29.55,SSE,163,0.0,0.0,95,0.00,,RMK !SN!,0.00,WUHU216DAVISVP2,2013-03-25 14:22:00,
2013-03-25 10:27:00,32.1,30.8,29.55,SSE,160,0.0,3.0,95,0.00,,RMK !SN!,0.00,WUHU216DAVISVP2,2013-03-25 14:27:00,
2013-03-25 10:32:00,32.2,30.6,29.56,SSE,167,1.0,3.0,94,0.00,,RMK !SN!,0.00,WUHU216DAVISVP2,2013-03-25 14:32:00,
2013-03-25 10:37:00,32.3,30.7,29.56,South,186,1.0,4.0,94,0.00,,RMK !SN!,0.00,WUHU216DAVISVP2,2013-03-25 14:37:00,
2013-03-25 10:42:00,32.5,31.0,29.56,South,176,0.0,4.0,94,0.00,,RMK !SN!,0.00,WUHU216DAVISVP2,2013-03-25 14:42:00,
2013-03-25 10:47:00,32.8,31.0,29.56,SSE,162,0.0,4.0,93,0.00,,RMK !SN!,0.00,WUHU216DAVISVP2,2013-03-25 14:47:00,
2013-03-25 10:52:00,33.0,31.1,29.56,SSW,202,2.0,4.0,93,0.00,,RMK !SN!,0.00,WUHU216DAVISVP2,2013-03-25 14:52:00,
2013-03-25 10:57:00,33.3,31.2,29.56,SSW,212,1.0,3.0,92,0.00,,RMK !SN!,0.00,WUHU216DAVISVP2,2013-03-25 14:57:00,
2013-03-25 11:02:00,33.4,31.0,29.56,SSE,162,1.0,5.0,91,0.00,,RMK !SN!,0.00,WUHU216DAVISVP2,2013-03-25 15:02:00,
2013-03-25 11:07:00,33.4,31.0,29.56,South,183,0.0,5.0,91,0.00,,RMK !SN!,0.00,WUHU216DAVISVP2,2013-03-25 15:07:00,
2013-03-25 11:12:00,33.7,31.3,29.56,SSW,208,1.0,5.0,91,0.00,,RMK !SN!,0.00,WUHU216DAVISVP2,2013-03-25 15:12:00,
2013-03-25 11:17:00,33.7,31.1,29.56,SSE,166,0.0,5.0,90,0.00,,RMK !SN!,0.00,WUHU216DAVISVP2,2013-03-25 15:17:00,
2013-03-25 11:22:00,33.9,31.2,29.56,SSW,198,1.0,4.0,90,0.00,,RMK !SN!,0.00,WUHU216DAVISVP2,2013-03-25 15:22:00,
2013-03-25 11:27:00,34.0,31.3,29.56,South,172,0.0,6.0,90,0.00,,RMK !SN!,0.00,WUHU216DAVISVP2,2013-03-25 15:27:00,
2013-03-25 11:32:00,34.0,31.1,29.57,SSW,207,2.0,6.0,89,0.00,,RMK !SN!,0.00,WUHU216DAVISVP2,2013-03-25 15:32:00,
2013-03-25 11:37:00,34.1,31.4,29.57,SSW,204,0.0,6.0,90,0.00,,RMK !SN!,0.00,WUHU216DAVISVP2,2013-03-25 15:37:00,
2013-03-25 11:42:00,34.1,30.9,29.57,South,183,1.0,6.0,88,0.00,,RMK !SN!,0.00,WUHU216DAVISVP2,2013-03-25 15:42:00,
2013-03-25 11:47:00,34.1,31.2,29.57,South,169,0.0,3.0,89,0.00,,RMK !SN!,0.00,WUHU216DAVISVP2,2013-03-25 15:47:00,
2013-03-25 11:53:00,34.2,31.0,29.57,SSE,166,2.0,3.0,88,0.00,,RMK !SN!,0.00,WUHU216DAVISVP2,2013-03-25 15:53:00,
2013-03-25 11:58:00,34.4,31.5,29.57,SSE,162,0.0,3.0,89,0.00,,RMK !SN!,0.00,WUHU216DAVISVP2,2013-03-25 15:58:00,
2013-03-25 12:03:00,34.4,31.5,29.58,South,174,0.0,3.0,89,0.00,,RMK !SN!,0.00,WUHU216DAVISVP2,2013-03-25 16:03:00,
2013-03-25 12:08:00,34.2,31.0,29.58,SSE,150,0.0,3.0,88,0.00,,RMK !SN!,0.00,WUHU216DAVISVP2,2013-03-25 16:08:00,
2013-03-25 12:13:00,34.2,31.3,29.58,South,189,2.0,3.0,89,0.00,,RMK !SN!,0.00,WUHU216DAVISVP2,2013-03-25 16:13:00,
2013-03-25 12:18:00,34.3,31.4,29.58,SE,124,0.0,3.0,89,0.00,,RMK !SN!,0.00,WUHU216DAVISVP2,2013-03-25 16:18:00,
2013-03-25 12:23:00,34.5,31.6,29.58,SSE,160,1.0,3.0,89,0.00,,RMK !SN!,0.00,WUHU216DAVISVP2,2013-03-25 16:23:00,
2013-03-25 12:28:00,34.4,31.2,29.58,SSW,195,2.0,4.0,88,0.00,,RMK !SN!,0.00,WUHU216DAVISVP2,2013-03-25 16:28:00,
2013-03-25 12:33:00,34.3,31.4,29.58,SSW,197,0.0,4.0,89,0.00,,RMK !SN!,0.00,WUHU216DAVISVP2,2013-03-25 16:33:00,
2013-03-25 12:38:00,34.3,31.4,29.58,SSE,167,1.0,4.0,89,0.00,,RMK !SN!,0.00,WUHU216DAVISVP2,2013-03-25 16:38:00,
2013-03-25 12:43:00,34.5,31.5,29.58,SSW,202,3.0,4.0,89,0.00,,RMK !SN!,0.00,WUHU216DAVISVP2,2013-03-25 16:43:00,
2013-03-25 12:48:00,34.5,31.5,29.58,South,181,0.0,4.0,89,0.00,,RMK !SN!,0.00,WUHU216DAVISVP2,2013-03-25 16:48:00,
2013-03-25 12:53:00,34.6,31.7,29.59,South,169,1.0,4.0,89,0.00,,RMK !SN!,0.00,WUHU216DAVISVP2,2013-03-25 16:53:00,
2013-03-25 12:58:00,34.7,31.8,29.59,SSE,157,0.0,4.0,89,0.00,,RMK !SN!,0.00,WUHU216DAVISVP2,2013-03-25 16:58:00,
2013-03-25 13:03:00,34.7,31.8,29.59,SE,143,0.0,5.0,89,0.00,,RMK !SN!,0.00,WUHU216DAVISVP2,2013-03-25 17:03:00,
2013-03-25 13:08:00,34.8,31.9,29.59,SE,142,0.0,5.0,89,0.00,,RMK !SN!,0.00,WUHU216DAVISVP2,2013-03-25 17:08:00,
2013-03-25 13:13:00,34.9,32.0,29.59,SSE,165,0.0,4.0,89,0.01,,RMK !SN!,0.01,WUHU216DAVISVP2,2013-03-25 17:13:00,
2013-03-25 13:18:00,34.8,31.9,29.59,South,172,2.0,4.0,89,0.01,,RMK !SN!,0.01,WUHU216DAVISVP2,2013-03-25 17:18:00,
2013-03-25 13:23:00,34.7,32.0,29.59,SSE,155,1.0,4.0,90,0.01,,RMK !SN!,0.01,WUHU216DAVISVP2,2013-03-25 17:23:00,
2013-03-25 13:28:00,34.6,31.6,29.59,South,184,0.0,4.0,89,0.01,,RMK !SN!,0.01,WUHU216DAVISVP2,2013-03-25 17:28:00,
2013-03-25 13:33:00,34.7,32.0,29.59,South,187,4.0,5.0,90,0.01,,RMK !SN!,0.01,WUHU216DAVISVP2,2013-03-25 17:33:00,
2013-03-25 13:38:00,34.6,31.9,29.60,South,184,3.0,5.0,90,0.02,,RMK !SN!,0.02,WUHU216DAVISVP2,2013-03-25 17:38:00,
2013-03-25 13:43:00,34.5,31.8,29.60,SSE,153,4.0,5.0,90,0.03,,RMK !SN!,0.03,WUHU216DAVISVP2,2013-03-25 17:43:00,
2013-03-25 13:48:00,34.6,32.2,29.60,SSE,153,0.0,5.0,91,0.03,,RMK !SN!,0.03,WUHU216DAVISVP2,2013-03-25 17:48:00,
2013-03-25 13:53:00,34.9,32.5,29.60,SSE,155,1.0,4.0,91,0.04,,RMK !SN!,0.04,WUHU216DAVISVP2,2013-03-25 17:53:00,
2013-03-25 13:58:00,34.7,32.0,29.60,South,180,0.0,5.0,90,0.04,,RMK !SN!,0.04,WUHU216DAVISVP2,2013-03-25 17:58:00,
2013-03-25 14:03:00,34.5,31.8,29.60,SE,138,0.0,5.0,90,0.05,,RMK !SN!,0.05,WUHU216DAVISVP2,2013-03-25 18:03:00,
2013-03-25 14:08:00,34.5,32.1,29.61,SSW,195,3.0,5.0,91,0.05,,RMK !SN!,0.05,WUHU216DAVISVP2,2013-03-25 18:08:00,
2013-03-25 14:13:00,34.2,31.8,29.61,South,187,2.0,6.0,91,0.05,,RMK !SN!,0.06,WUHU216DAVISVP2,2013-03-25 18:13:00,
2013-03-25 14:18:00,33.8,31.5,29.61,South,183,2.0,6.0,91,0.05,,RMK !SN!,0.06,WUHU216DAVISVP2,2013-03-25 18:18:00,
2013-03-25 14:23:00,33.7,31.6,29.61,South,173,2.0,6.0,92,0.06,,RMK !SN!,0.07,WUHU216DAVISVP2,2013-03-25 18:23:00,
2013-03-25 14:28:00,33.6,31.5,29.61,SSE,155,2.0,6.0,92,0.06,,RMK !SN!,0.07,WUHU216DAVISVP2,2013-03-25 18:28:00,
2013-03-25 14:33:00,33.6,31.7,29.61,SE,139,1.0,6.0,93,0.06,,RMK !SN!,0.07,WUHU216DAVISVP2,2013-03-25 18:33:00,
2013-03-25 14:38:00,33.5,31.6,29.61,SSE,150,3.0,5.0,93,0.06,,RMK !SN!,0.08,WUHU216DAVISVP2,2013-03-25 18:38:00,
2013-03-25 14:43:00,33.4,31.6,29.61,South,183,3.0,8.0,93,0.05,,RMK !SN!,0.08,WUHU216DAVISVP2,2013-03-25 18:43:00,
2013-03-25 14:48:00,33.5,31.6,29.62,South,169,1.0,8.0,93,0.06,,RMK !SN!,0.09,WUHU216DAVISVP2,2013-03-25 18:48:00,
2013-03-25 14:53:00,33.7,31.8,29.62,SSE,160,1.0,8.0,93,0.05,,RMK !SN!,0.09,WUHU216DAVISVP2,2013-03-25 18:53:00,
2013-03-25 14:58:00,33.6,31.7,29.62,SSE,167,0.0,8.0,93,0.04,,RMK !SN!,0.09,WUHU216DAVISVP2,2013-03-25 18:58:00,
2013-03-25 15:04:00,33.4,31.5,29.62,South,179,2.0,7.0,93,0.05,,RMK !SN!,0.10,WUHU216DAVISVP2,2013-03-25 19:04:00,
2013-03-25 15:09:00,33.2,31.3,29.63,SSW,201,3.0,7.0,93,0.05,,RMK !SN!,0.10,WUHU216DAVISVP2,2013-03-25 19:09:00,
2013-03-25 15:14:00,33.3,31.8,29.63,South,186,1.0,8.0,94,0.04,,RMK !SN!,0.10,WUHU216DAVISVP2,2013-03-25 19:14:00,
2013-03-25 15:19:00,33.2,31.4,29.63,South,191,3.0,8.0,93,0.04,,RMK !SN!,0.10,WUHU216DAVISVP2,2013-03-25 19:19:00,
2013-03-25 15:24:00,33.3,31.7,29.63,East,94,8.0,8.0,94,0.04,,RMK !SN!,0.11,WUHU216DAVISVP2,2013-03-25 19:24:00,
2013-03-25 15:29:00,33.3,31.7,29.63,SSE,163,2.0,8.0,94,0.04,,RMK !SN!,0.11,WUHU216DAVISVP2,2013-03-25 19:29:00,
2013-03-25 15:34:00,33.3,31.4,29.64,South,177,2.0,8.0,93,0.04,,RMK !SN!,0.11,WUHU216DAVISVP2,2013-03-25 19:34:00,
2013-03-25 15:39:00,33.3,31.4,29.64,South,181,0.0,8.0,93,0.03,,RMK !SN!,0.11,WUHU216DAVISVP2,2013-03-25 19:39:00,
2013-03-25 15:44:00,33.5,31.6,29.64,SSE,160,2.0,6.0,93,0.03,,RMK !SN!,0.11,WUHU216DAVISVP2,2013-03-25 19:44:00,
2013-03-25 15:49:00,33.6,31.7,29.64,South,171,2.0,6.0,93,0.03,,RMK !SN!,0.12,WUHU216DAVISVP2,2013-03-25 19:49:00,
2013-03-25 15:54:00,33.6,31.8,29.64,SSE,166,1.0,7.0,93,0.03,,RMK !SN!,0.12,WUHU216DAVISVP2,2013-03-25 19:54:00,
2013-03-25 15:59:00,33.6,31.7,29.64,SSW,207,2.0,7.0,93,0.03,,RMK !SN!,0.12,WUHU216DAVISVP2,2013-03-25 19:59:00,
2013-03-25 16:04:00,33.4,31.5,29.65,SW,214,3.0,7.0,93,0.03,,RMK !SN!,0.13,WUHU216DAVISVP2,2013-03-25 20:04:00,
2013-03-25 16:09:00,33.3,31.4,29.65,South,176,0.0,7.0,93,0.03,,RMK !SN!,0.13,WUHU216DAVISVP2,2013-03-25 20:09:00,
2013-03-25 16:14:00,33.3,31.4,29.65,South,174,1.0,5.0,93,0.03,,RMK !SN!,0.13,WUHU216DAVISVP2,2013-03-25 20:14:00,
2013-03-25 16:19:00,33.4,31.5,29.66,SSE,166,4.0,6.0,93,0.04,,RMK !SN!,0.14,WUHU216DAVISVP2,2013-03-25 20:19:00,
2013-03-25 16:24:00,33.3,31.2,29.66,SSE,164,1.0,6.0,92,0.03,,RMK !SN!,0.14,WUHU216DAVISVP2,2013-03-25 20:24:00,
2013-03-25 16:29:00,33.2,31.3,29.66,SSW,198,2.0,6.0,93,0.04,,RMK !SN!,0.15,WUHU216DAVISVP2,2013-03-25 20:29:00,
2013-03-25 16:34:00,33.1,31.0,29.67,SSE,165,1.0,7.0,92,0.04,,RMK !SN!,0.15,WUHU216DAVISVP2,2013-03-25 20:34:00,
2013-03-25 16:39:00,33.1,31.2,29.67,SSW,205,1.0,8.0,93,0.04,,RMK !SN!,0.15,WUHU216DAVISVP2,2013-03-25 20:39:00,
2013-03-25 16:44:00,33.0,31.1,29.67,South,181,2.0,8.0,93,0.05,,RMK !SN!,0.16,WUHU216DAVISVP2,2013-03-25 20:44:00,
2013-03-25 16:49:00,32.9,31.0,29.67,South,170,1.0,8.0,93,0.04,,RMK !SN!,0.16,WUHU216DAVISVP2,2013-03-25 20:49:00,
2013-03-25 16:54:00,32.7,30.9,29.68,SSW,203,3.0,8.0,93,0.04,,RMK !SN!,0.16,WUHU216DAVISVP2,2013-03-25 20:54:00,
2013-03-25 16:59:00,32.8,31.0,29.68,South,172,0.0,8.0,93,0.05,,RMK !SN!,0.17,WUHU216DAVISVP2,2013-03-25 20:59:00,
2013-03-25 17:04:00,33.0,31.4,29.68,SSE,150,1.0,8.0,94,0.04,,RMK !SN!,0.17,WUHU216DAVISVP2,2013-03-25 21:04:00,
2013-03-25 17:09:00,33.0,31.4,29.68,SE,142,0.0,8.0,94,0.04,,RMK !SN!,0.17,WUHU216DAVISVP2,2013-03-25 21:09:00,
2013-03-25 17:14:00,33.0,31.1,29.69,SSE,166,0.0,7.0,93,0.05,,RMK !SN!,0.18,WUHU216DAVISVP2,2013-03-25 21:14:00,
2013-03-25 17:19:00,33.0,31.4,29.69,SE,131,2.0,7.0,94,0.04,,RMK !SN!,0.18,WUHU216DAVISVP2,2013-03-25 21:19:00,
2013-03-25 17:24:00,33.0,31.1,29.69,SSE,158,0.0,7.0,93,0.04,,RMK !SN!,0.18,WUHU216DAVISVP2,2013-03-25 21:24:00,
2013-03-25 17:29:00,32.8,31.0,29.70,SSE,163,4.0,7.0,93,0.03,,RMK !SN!,0.18,WUHU216DAVISVP2,2013-03-25 21:29:00,
2013-03-25 17:34:00,32.5,30.7,29.70,ESE,106,1.0,10.0,93,0.03,,RMK !SN!,0.18,WUHU216DAVISVP2,2013-03-25 21:34:00,
2013-03-25 17:39:00,32.4,30.8,29.70,SSW,207,3.0,10.0,94,0.04,,RMK !SN!,0.19,WUHU216DAVISVP2,2013-03-25 21:39:00,
2013-03-25 17:44:00,32.3,30.7,29.71,SSE,160,3.0,10.0,94,0.03,,RMK !SN!,0.19,WUHU216DAVISVP2,2013-03-25 21:44:00,
2013-03-25 17:49:00,32.2,30.7,29.71,South,177,2.0,10.0,94,0.03,,RMK !SN!,0.19,WUHU216DAVISVP2,2013-03-25 21:49:00,
2013-03-25 17:54:00,32.1,30.6,29.71,SSE,163,2.0,8.0,94,0.03,,RMK !SN!,0.19,WUHU216DAVISVP2,2013-03-25 21:54:00,
2013-03-25 17:59:00,32.1,30.5,29.71,South,190,2.0,10.0,94,0.02,,RMK !SN!,0.19,WUHU216DAVISVP2,2013-03-25 21:59:00,
2013-03-25 18:04:00,32.0,30.4,29.72,SSW,201,1.0,10.0,94,0.02,,RMK !SN!,0.19,WUHU216DAVISVP2,2013-03-25 22:04:00,
2013-03-25 18:09:00,32.0,30.4,29.72,SSW,193,1.0,10.0,94,0.02,,RMK !SN!,0.19,WUHU216DAVISVP2,2013-03-25 22:09:00,
2013-03-25 18:15:00,31.9,30.3,29.73,South,188,1.0,10.0,94,0.01,,RMK !SN!,0.19,WUHU216DAVISVP2,2013-03-25 22:15:00,
2013-03-25 18:20:00,31.9,30.3,29.73,SE,139,1.0,7.0,94,0.01,,RMK !SN!,0.19,WUHU216DAVISVP2,2013-03-25 22:20:00,
2013-03-25 18:25:00,31.8,30.2,29.73,South,169,2.0,7.0,94,0.01,,RMK !SN!,0.19,WUHU216DAVISVP2,2013-03-25 22:25:00,
2013-03-25 18:30:00,31.8,30.2,29.74,SE,146,1.0,6.0,94,0.02,,RMK !SN!,0.20,WUHU216DAVISVP2,2013-03-25 22:30:00,
2013-03-25 18:35:00,31.8,30.3,29.74,SSE,158,1.0,6.0,94,0.02,,RMK !SN!,0.20,WUHU216DAVISVP2,2013-03-25 22:35:00,
2013-03-25 18:40:00,31.7,30.1,29.74,SSE,158,0.0,7.0,94,0.01,,RMK !SN!,0.20,WUHU216DAVISVP2,2013-03-25 22:40:00,
2013-03-25 18:45:00,31.6,30.0,29.74,SE,136,1.0,8.0,94,0.01,,RMK !SN!,0.20,WUHU216DAVISVP2,2013-03-25 22:45:00,
2013-03-25 18:50:00,31.7,30.4,29.74,SSE,158,1.0,8.0,95,0.01,,RMK !SN!,0.20,WUHU216DAVISVP2,2013-03-25 22:50:00,
2013-03-25 18:55:00,31.6,30.3,29.75,SSE,157,1.0,8.0,95,0.01,,RMK !SN!,0.20,WUHU216DAVISVP2,2013-03-25 22:55:00,
2013-03-25 19:00:00,31.6,30.3,29.75,SSW,201,3.0,8.0,95,0.01,,RMK !SN!,0.20,WUHU216DAVISVP2,2013-03-25 23:00:00,
2013-03-25 19:05:00,31.6,30.3,29.76,SSW,201,2.0,7.0,95,0.01,,RMK !SN!,0.20,WUHU216DAVISVP2,2013-03-25 23:05:00,
2013-03-25 19:10:00,31.5,30.2,29.76,SSE,150,0.0,7.0,95,0.01,,RMK !SN!,0.20,WUHU216DAVISVP2,2013-03-25 23:10:00,
2013-03-25 19:15:00,31.5,30.2,29.76,SSE,150,4.0,7.0,95,0.01,,RMK !SN!,0.20,WUHU216DAVISVP2,2013-03-25 23:15:00,
2013-03-25 19:20:00,31.3,30.0,29.77,South,174,2.0,7.0,95,0.01,,RMK !SN!,0.20,WUHU216DAVISVP2,2013-03-25 23:20:00,
2013-03-25 19:25:00,31.3,30.0,29.77,SE,132,2.0,7.0,95,0.01,,RMK !SN!,0.20,WUHU216DAVISVP2,2013-03-25 23:25:00,
2013-03-25 19:30:00,31.3,30.3,29.77,South,169,0.0,7.0,96,0.00,,RMK !SN!,0.20,WUHU216DAVISVP2,2013-03-25 23:30:00,
2013-03-25 19:35:00,31.3,30.3,29.78,SSE,156,3.0,5.0,96,0.00,,RMK !SN!,0.20,WUHU216DAVISVP2,2013-03-25 23:35:00,
2013-03-25 19:40:00,31.3,30.3,29.78,SSW,206,4.0,5.0,96,0.00,,RMK !SN!,0.20,WUHU216DAVISVP2,2013-03-25 23:40:00,
2013-03-25 19:44:00,31.3,30.3,29.78,SSE,167,1.0,7.0,96,0.00,,RMK !SN!,0.20,WUHU216DAVISVP2,2013-03-25 23:44:00,
2013-03-25 19:49:00,31.3,30.3,29.79,South,179,3.0,7.0,96,0.00,,RMK !SN!,0.20,WUHU216DAVISVP2,2013-03-25 23:49:00,
2013-03-25 19:55:00,31.3,30.3,29.79,ESE,115,4.0,6.0,96,0.00,,RMK !SN!,0.20,WUHU216DAVISVP2,2013-03-25 23:55:00,
2013-03-25 20:00:00,31.3,30.3,29.79,SSE,167,2.0,8.0,96,0.00,,RMK !SN!,0.20,WUHU216DAVISVP2,2013-03-26 00:00:00,
2013-03-25 20:05:00,31.3,30.3,29.80,SSE,160,1.0,8.0,96,0.00,,RMK !SN!,0.20,WUHU216DAVISVP2,2013-03-26 00:05:00,
2013-03-25 20:10:00,31.3,30.3,29.80,ESE,119,4.0,8.0,96,0.00,,RMK !SN!,0.20,WUHU216DAVISVP2,2013-03-26 00:10:00,
2013-03-25 20:14:00,31.3,30.3,29.80,South,184,2.0,8.0,96,0.00,,RMK !SN!,0.20,WUHU216DAVISVP2,2013-03-26 00:14:00,
2013-03-25 20:19:00,31.3,30.3,29.80,SSE,152,0.0,7.0,96,0.01,,RMK !SN!,0.21,WUHU216DAVISVP2,2013-03-26 00:19:00,
2013-03-25 20:24:00,31.3,30.3,29.81,SE,127,4.0,7.0,96,0.01,,RMK !SN!,0.21,WUHU216DAVISVP2,2013-03-26 00:24:00,
2013-03-25 20:29:00,31.3,30.3,29.81,South,177,3.0,8.0,96,0.01,,RMK !SN!,0.21,WUHU216DAVISVP2,2013-03-26 00:29:00,
2013-03-25 20:34:00,31.2,30.2,29.81,SSE,166,3.0,8.0,96,0.01,,RMK !SN!,0.21,WUHU216DAVISVP2,2013-03-26 00:34:00,
2013-03-25 20:39:00,31.2,30.2,29.81,SSE,155,3.0,7.0,96,0.01,,RMK !SN!,0.21,WUHU216DAVISVP2,2013-03-26 00:39:00,
2013-03-25 20:44:00,31.2,30.2,29.82,SSE,156,1.0,7.0,96,0.01,,RMK !SN!,0.21,WUHU216DAVISVP2,2013-03-26 00:44:00,
2013-03-25 20:49:00,31.2,30.2,29.82,SE,145,2.0,6.0,96,0.01,,RMK !SN!,0.21,WUHU216DAVISVP2,2013-03-26 00:49:00,
2013-03-25 20:54:00,31.2,30.2,29.83,SSE,166,1.0,6.0,96,0.01,,RMK !SN!,0.21,WUHU216DAVISVP2,2013-03-26 00:54:00,
2013-03-25 20:59:00,31.1,30.1,29.83,South,169,0.0,6.0,96,0.01,,RMK !SN!,0.21,WUHU216DAVISVP2,2013-03-26 00:59:00,
2013-03-25 21:04:00,31.1,30.1,29.83,South,172,0.0,7.0,96,0.01,,RMK !SN!,0.21,WUHU216DAVISVP2,2013-03-26 01:04:00,
2013-03-25 21:09:00,31.0,30.0,29.83,South,169,0.0,7.0,96,0.01,,RMK !SN!,0.21,WUHU216DAVISVP2,2013-03-26 01:09:00,
2013-03-25 21:14:00,31.0,30.0,29.83,SSE,155,0.0,7.0,96,0.01,,RMK !SN!,0.21,WUHU216DAVISVP2,2013-03-26 01:14:00,
2013-03-25 21:19:00,31.0,30.0,29.83,SSE,150,0.0,4.0,96,0.00,,RMK !SN!,0.21,WUHU216DAVISVP2,2013-03-26 01:19:00,
2013-03-25 21:24:00,31.0,30.0,29.84,South,186,1.0,4.0,96,0.00,,RMK !SN!,0.21,WUHU216DAVISVP2,2013-03-26 01:24:00,
2013-03-25 21:29:00,31.0,30.0,29.84,SSE,153,0.0,2.0,96,0.00,,RMK !SN!,0.21,WUHU216DAVISVP2,2013-03-26 01:29:00,
2013-03-25 21:35:00,31.0,30.0,29.84,SSE,153,0.0,2.0,96,0.00,,RMK !SN!,0.21,WUHU216DAVISVP2,2013-03-26 01:35:00,
2013-03-25 21:40:00,31.0,30.0,29.85,ESE,122,0.0,2.0,96,0.00,,RMK !SN!,0.21,WUHU216DAVISVP2,2013-03-26 01:40:00,
2013-03-25 21:45:00,31.1,30.1,29.85,ESE,105,0.0,2.0,96,0.00,,RMK !SN!,0.21,WUHU216DAVISVP2,2013-03-26 01:45:00,
2013-03-25 21:50:00,31.2,30.2,29.86,SSE,154,0.0,2.0,96,0.00,,RMK !SN!,0.21,WUHU216DAVISVP2,2013-03-26 01:50:00,
2013-03-25 21:55:00,31.2,30.2,29.86,ESE,113,0.0,2.0,96,0.00,,RMK !SN!,0.21,WUHU216DAVISVP2,2013-03-26 01:55:00,
2013-03-25 22:00:00,31.2,30.2,29.86,SSE,166,1.0,3.0,96,0.00,,RMK !SN!,0.21,WUHU216DAVISVP2,2013-03-26 02:00:00,
2013-03-25 22:05:00,31.1,30.1,29.86,SSE,158,0.0,3.0,96,0.00,,RMK !SN!,0.21,WUHU216DAVISVP2,2013-03-26 02:05:00,
2013-03-25 22:10:00,31.1,30.1,29.86,SSE,166,0.0,3.0,96,0.00,,RMK !SN!,0.21,WUHU216DAVISVP2,2013-03-26 02:10:00,
2013-03-25 22:15:00,31.0,30.0,29.86,SSE,165,0.0,3.0,96,0.00,,RMK !SN!,0.21,WUHU216DAVISVP2,2013-03-26 02:15:00,
2013-03-25 22:20:00,31.0,30.0,29.87,SE,145,0.0,3.0,96,0.00,,RMK !SN!,0.21,WUHU216DAVISVP2,2013-03-26 02:20:00,
2013-03-25 22:25:00,31.0,30.0,29.87,SSE,153,0.0,3.0,96,0.00,,RMK !SN!,0.21,WUHU216DAVISVP2,2013-03-26 02:25:00,
2013-03-25 22:30:00,31.0,30.0,29.87,SSE,153,0.0,1.0,96,0.00,,RMK !SN!,0.21,WUHU216DAVISVP2,2013-03-26 02:30:00,
2013-03-25 22:35:00,30.9,29.9,29.87,SSE,153,0.0,1.0,96,0.00,,RMK !SN!,0.21,WUHU216DAVISVP2,2013-03-26 02:35:00,
2013-03-25 22:40:00,30.8,29.8,29.87,SSE,153,0.0,1.0,96,0.00,,RMK !SN!,0.21,WUHU216DAVISVP2,2013-03-26 02:40:00,
2013-03-25 22:45:00,30.8,29.8,29.87,SSE,153,0.0,1.0,96,0.00,,RMK !SN!,0.21,WUHU216DAVISVP2,2013-03-26 02:45:00,
2013-03-25 22:50:00,30.7,29.7,29.87,SSE,154,0.0,1.0,96,0.00,,RMK !SN!,0.21,WUHU216DAVISVP2,2013-03-26 02:50:00,
2013-03-25 22:55:00,30.6,29.6,29.87,SSE,154,0.0,0.0,96,0.00,,RMK !SN!,0.21,WUHU216DAVISVP2,2013-03-26 02:55:00,
2013-03-25 23:00:00,30.6,29.6,29.87,SSE,153,0.0,0.0,96,0.00,,RMK !SN!,0.21,WUHU216DAVISVP2,2013-03-26 03:00:00,
2013-03-25 23:05:00,30.5,29.5,29.87,SSE,153,0.0,0.0,96,0.00,,RMK !SN!,0.21,WUHU216DAVISVP2,2013-03-26 03:05:00,
2013-03-25 23:10:00,30.5,29.5,29.87,SSE,153,0.0,0.0,96,0.00,,RMK !SN!,0.21,WUHU216DAVISVP2,2013-03-26 03:10:00,
2013-03-25 23:15:00,30.4,29.4,29.88,SSE,153,0.0,0.0,96,0.00,,RMK !SN!,0.21,WUHU216DAVISVP2,2013-03-26 03:15:00,
2013-03-25 23:20:00,30.3,29.3,29.88,SSE,154,0.0,0.0,96,0.00,,RMK !SN!,0.21,WUHU216DAVISVP2,2013-03-26 03:20:00,
2013-03-25 23:25:00,30.3,29.3,29.88,SSE,153,0.0,0.0,96,0.00,,RMK !SN!,0.21,WUHU216DAVISVP2,2013-03-26 03:25:00,
2013-03-25 23:30:00,30.2,29.2,29.88,SSE,153,0.0,0.0,96,0.00,,RMK !SN!,0.21,WUHU216DAVISVP2,2013-03-26 03:30:00,
2013-03-25 23:35:00,30.1,29.1,29.88,SSE,153,0.0,0.0,96,0.00,,RMK !SN!,0.21,WUHU216DAVISVP2,2013-03-26 03:35:00,
2013-03-25 23:40:00,30.1,29.1,29.88,SSE,153,0.0,0.0,96,0.00,,RMK !SN!,0.21,WUHU216DAVISVP2,2013-03-26 03:40:00,
2013-03-25 23:45:00,30.1,29.1,29.88,SSE,153,0.0,0.0,96,0.00,,RMK !SN!,0.21,WUHU216DAVISVP2,2013-03-26 03:45:00,
2013-03-25 23:50:00,30.2,29.5,29.88,SSE,153,0.0,0.0,97,0.00,,RMK !SN!,0.21,WUHU216DAVISVP2,2013-03-26 03:50:00,
2013-03-25 23:55:00,30.3,29.6,29.88,SSE,153,0.0,0.0,97,0.00,,RMK !SN!,0.21,WUHU216DAVISVP2,2013-03-26 03:55:00,